Fergus Falls, MN

12:12 AM CST on December 08, 2019 (GMT -0600)
Fergus Falls Municipal-Mickelson

Weather History for KFFM - November, 2019

Change the Weather History Date:

Tuesday, November 12, 2019

  Actual Average Record
Temperature  
Mean Temperature 10 °F -  
Max Temperature 19 °F 36 °F 62 °F (2011)
Min Temperature 0 °F 20 °F -3 °F (1986)
Degree Days  
Heating Degree Days 56    
Moisture  
Dew Point 4 °F    
Average Humidity 75    
Maximum Humidity 92    
Minimum Humidity 62    
Precipitation  
Precipitation 0.00 in - - ()
Sea Level Pressure  
Sea Level Pressure 30.20 in    
Wind  
Wind Speed 11 mph ()    
Max Wind Speed 28 mph    
Max Gust Speed 34 mph    
Visibility 10.0 miles    
Events      
Averages and records for this station are not official NWS values.
T = Trace of Precipitation, MM = Missing Value Source: Averaged Metar Reports

Daily Weather History Graph

Daily Weather History Graph

Search for Another Location

Airport or City:

Astronomy

Nov. 12, 2019 Rise Set
Actual Time 7:21 AM CST 4:55 PM CST
Civil Twilight 6:48 AM CST 5:27 PM CST
Nautical Twilight 6:12 AM CST 6:04 PM CST
Astronomical Twilight 5:37 AM CST 6:39 PM CST
Moon 5:24 PM CST (11/12) 7:11 AM CST (11/12)
Length of Visible Light 10h 38m
Length of Day
9h 34m
Full, 100% of the Moon is Illuminated
Nov 12
Full
Nov 19
Last Quarter
Nov 26
New
Dec 4
First Quarter
Dec 11
Full

Hourly Weather History & Observations

Time (CST) Temp. Windchill Dew Point Humidity Pressure Visibility Wind Dir Wind Speed Gust Speed Precip Events Conditions
12:16 AM 1.4 °F - -2.2 °F 85% 30.58 in 10.0 mi Calm Calm - N/A   Clear
12:35 AM 1.4 °F - -4.0 °F 78% 30.58 in 10.0 mi Calm Calm - N/A   Clear
12:36 AM 1.4 °F - -2.2 °F 85% 30.58 in 10.0 mi Calm Calm - N/A   Clear
12:55 AM -0.4 °F -8.3 °F -4.0 °F 85% 30.58 in 10.0 mi SW 3.5 mph - N/A   Clear
1:16 AM -0.4 °F -10.4 °F -4.0 °F 85% 30.58 in 10.0 mi SW 4.6 mph - N/A   Clear
1:36 AM -0.4 °F -8.3 °F -4.0 °F 85% 30.57 in 10.0 mi South 3.5 mph - N/A   Clear
1:55 AM -0.4 °F -8.3 °F -4.0 °F 85% 30.56 in 10.0 mi South 3.5 mph - N/A   Clear
2:15 AM -0.4 °F -8.3 °F -4.0 °F 85% 30.56 in 10.0 mi SSE 3.5 mph - N/A   Clear
2:19 AM -0.4 °F -8.3 °F -4.0 °F 85% 30.56 in 10.0 mi South 3.5 mph - N/A   Clear
2:37 AM -0.4 °F -10.4 °F -4.0 °F 85% 30.55 in 10.0 mi SSE 4.6 mph - N/A   Clear
3:16 AM -0.4 °F -10.4 °F -4.0 °F 85% 30.53 in 10.0 mi South 4.6 mph - N/A   Clear
3:35 AM -0.4 °F -10.4 °F -4.0 °F 85% 30.52 in 10.0 mi South 4.6 mph - N/A   Clear
3:36 AM -0.4 °F -10.4 °F -4.0 °F 85% 30.52 in 10.0 mi South 4.6 mph - N/A   Clear
3:58 AM -0.4 °F -10.4 °F -4.0 °F 85% 30.51 in 10.0 mi South 4.6 mph - N/A   Clear
4:15 AM -0.4 °F -12.0 °F -4.0 °F 85% 30.50 in 10.0 mi South 5.8 mph - N/A   Clear
4:35 AM -0.4 °F -12.0 °F -4.0 °F 85% 30.49 in 10.0 mi South 5.8 mph - N/A   Clear
4:36 AM -0.4 °F -12.0 °F -4.0 °F 85% 30.49 in 10.0 mi South 5.8 mph - N/A   Clear
4:55 AM -0.4 °F -13.4 °F -2.2 °F 92% 30.48 in 10.0 mi South 6.9 mph - N/A   Clear
4:56 AM -0.4 °F -13.4 °F -2.2 °F 92% 30.48 in 10.0 mi South 6.9 mph - N/A   Clear
5:18 AM -0.4 °F -13.4 °F -4.0 °F 85% 30.47 in 10.0 mi SSE 6.9 mph - N/A   Clear
5:37 AM 1.4 °F -11.3 °F -2.2 °F 85% 30.46 in 10.0 mi South 6.9 mph - N/A   Clear
5:56 AM 1.4 °F -12.5 °F -2.2 °F 85% - 10.0 mi South 8.1 mph - N/A   Clear
6:15 AM 1.4 °F -12.5 °F -2.2 °F 85% 30.44 in 10.0 mi South 8.1 mph - N/A   Clear
6:16 AM 1.4 °F -13.5 °F -2.2 °F 85% 30.43 in 10.0 mi South 9.2 mph - N/A   Clear
6:35 AM 1.4 °F -13.5 °F -2.2 °F 85% 30.43 in 10.0 mi South 9.2 mph - N/A   Clear
6:39 AM 1.4 °F -13.5 °F -2.2 °F 85% 30.42 in 10.0 mi South 9.2 mph - N/A   Clear
6:58 AM 3.2 °F -12.2 °F -2.2 °F 78% 30.41 in 10.0 mi SSE 10.4 mph - N/A   Clear
7:15 AM 3.2 °F -13.9 °F -2.2 °F 78% 30.40 in 10.0 mi South 12.7 mph - N/A   Clear
7:35 AM 3.2 °F -14.6 °F -2.2 °F 78% 30.39 in 10.0 mi South 13.8 mph - N/A   Clear
7:36 AM 3.2 °F -13.9 °F -2.2 °F 78% 30.39 in 10.0 mi South 12.7 mph - N/A   Clear
7:55 AM 5.0 °F -12.3 °F -0.4 °F 78% 30.39 in 10.0 mi South 13.8 mph - N/A   Clear
7:56 AM 5.0 °F -11.6 °F -0.4 °F 78% 30.39 in 10.0 mi South 12.7 mph - N/A   Clear
8:17 AM 6.8 °F -10.7 °F -0.4 °F 72% 30.38 in 10.0 mi South 15.0 mph - N/A   Clear
8:35 AM 6.8 °F -11.8 °F 1.4 °F 79% 30.36 in 10.0 mi South 17.3 mph 21.9 mph N/A   Clear
8:36 AM 6.8 °F -12.4 °F 1.4 °F 79% 30.36 in 10.0 mi South 18.4 mph 21.9 mph N/A   Clear
8:55 AM 8.6 °F -9.5 °F 1.4 °F 73% 30.35 in 10.0 mi South 17.3 mph - N/A   Clear
8:56 AM 8.6 °F -10.0 °F 1.4 °F 73% 30.34 in 10.0 mi South 18.4 mph - N/A   Clear
9:15 AM 8.6 °F -9.5 °F 1.4 °F 73% 30.33 in 10.0 mi South 17.3 mph 20.7 mph N/A   Clear
9:37 AM 8.6 °F -11.0 °F 3.2 °F 79% 30.31 in 10.0 mi South 20.7 mph 24.2 mph N/A   Clear
9:56 AM 10.4 °F -7.7 °F 3.2 °F 73% 30.30 in 10.0 mi South 18.4 mph - N/A   Clear
10:15 AM 10.4 °F -8.6 °F 5.0 °F 79% 30.30 in 10.0 mi South 20.7 mph 25.3 mph N/A   Clear
10:16 AM 10.4 °F -8.2 °F 3.2 °F 73% 30.30 in 10.0 mi South 19.6 mph 25.3 mph N/A   Clear
10:35 AM 10.4 °F -9.1 °F 3.2 °F 73% 30.28 in 10.0 mi SSE 21.9 mph - N/A   Clear
10:36 AM 10.4 °F -8.6 °F 3.2 °F 73% 30.27 in 10.0 mi SSE 20.7 mph - N/A   Clear
10:59 AM 12.2 °F -6.7 °F 5.0 °F 73% 30.25 in 10.0 mi South 21.9 mph - N/A   Clear
11:16 AM 12.2 °F -5.8 °F 5.0 °F 73% 30.24 in 10.0 mi SSE 19.6 mph 26.5 mph N/A   Clear
11:36 AM 14.0 °F -3.4 °F 5.0 °F 67% 30.22 in 10.0 mi SSE 19.6 mph 25.3 mph N/A   Clear
11:55 AM 14.0 °F -3.0 °F 5.0 °F 67% 30.20 in 10.0 mi SSE 18.4 mph 31.1 mph N/A   Clear
12:15 PM 15.8 °F -2.3 °F 5.0 °F 62% 30.18 in 10.0 mi SSE 23.0 mph - N/A   Clear
12:37 PM 15.8 °F -1.9 °F 5.0 °F 62% 30.16 in 10.0 mi SSE 21.9 mph 25.3 mph N/A   Clear
12:56 PM 17.6 °F 0.9 °F 6.8 °F 63% 30.14 in 10.0 mi SSE 20.7 mph 28.8 mph N/A   Clear
1:15 PM 17.6 °F -0.3 °F 6.8 °F 63% 30.13 in 10.0 mi SSE 24.2 mph 31.1 mph N/A   Clear
1:16 PM 17.6 °F 0.5 °F 6.8 °F 63% 30.13 in 10.0 mi SSE 21.9 mph 31.1 mph N/A   Clear
1:35 PM 17.6 °F 0.1 °F 6.8 °F 63% 30.10 in 10.0 mi SSE 23.0 mph 33.4 mph N/A   Clear
1:36 PM 17.6 °F -0.6 °F 6.8 °F 63% 30.10 in 10.0 mi SSE 25.3 mph 32.2 mph N/A   Clear
1:58 PM 17.6 °F -0.3 °F 6.8 °F 63% 30.08 in 10.0 mi SSE 24.2 mph 32.2 mph N/A   Clear
2:17 PM 17.6 °F -1.0 °F 6.8 °F 63% 30.06 in 10.0 mi SSE 26.5 mph 32.2 mph N/A   Clear
2:36 PM 17.6 °F 0.1 °F 6.8 °F 63% 30.05 in 10.0 mi SSE 23.0 mph 34.5 mph N/A   Clear
2:55 PM 17.6 °F -0.3 °F 8.6 °F 68% 30.04 in 10.0 mi SSE 24.2 mph 33.4 mph N/A   Clear
2:56 PM 17.6 °F -0.6 °F 8.6 °F 68% 30.04 in 10.0 mi SSE 25.3 mph 33.4 mph N/A   Clear
3:15 PM 17.6 °F -1.3 °F 8.6 °F 68% 30.04 in 10.0 mi South 27.6 mph - N/A   Clear
3:19 PM 17.6 °F 0.5 °F 8.6 °F 68% 30.04 in 10.0 mi South 21.9 mph 32.2 mph N/A   Clear
3:38 PM 17.6 °F 0.9 °F 8.6 °F 68% 30.04 in 10.0 mi South 20.7 mph 27.6 mph N/A   Clear
3:55 PM 17.6 °F 0.9 °F 8.6 °F 68% 30.03 in 10.0 mi SSE 20.7 mph 28.8 mph N/A   Clear
4:15 PM 17.6 °F -0.6 °F 8.6 °F 68% 30.02 in 10.0 mi SSE 25.3 mph 29.9 mph N/A   Clear
4:16 PM 17.6 °F 0.1 °F 8.6 °F 68% 30.02 in 10.0 mi SSE 23.0 mph 29.9 mph N/A   Clear
4:35 PM 17.6 °F 0.9 °F 8.6 °F 68% 30.01 in 10.0 mi SSE 20.7 mph 27.6 mph N/A   Scattered Clouds
4:36 PM 17.6 °F -0.3 °F 8.6 °F 68% 30.01 in 10.0 mi SSE 24.2 mph 29.9 mph N/A   Clear
4:58 PM 17.6 °F -0.3 °F 8.6 °F 68% 30.00 in 10.0 mi SSE 24.2 mph - N/A   Scattered Clouds
5:17 PM 17.6 °F -0.3 °F 10.4 °F 73% 30.00 in 10.0 mi SSE 24.2 mph 28.8 mph N/A   Scattered Clouds
5:36 PM 17.6 °F 0.9 °F 10.4 °F 73% 30.00 in 10.0 mi SSE 20.7 mph 28.8 mph N/A   Scattered Clouds
5:55 PM 17.6 °F 1.3 °F 10.4 °F 73% 30.00 in 10.0 mi SSE 19.6 mph 24.2 mph N/A   Clear
5:56 PM 17.6 °F 1.3 °F 10.4 °F 73% 30.00 in 10.0 mi SSE 19.6 mph 24.2 mph N/A   Clear
6:15 PM 17.6 °F 0.9 °F 10.4 °F 73% 29.97 in 10.0 mi SSE 20.7 mph 26.5 mph N/A   Clear
6:19 PM 17.6 °F 0.1 °F 10.4 °F 73% 29.97 in 10.0 mi SSE 23.0 mph 26.5 mph N/A   Clear
6:38 PM 19.4 °F 3.6 °F 10.4 °F 68% 29.96 in 10.0 mi SSE 19.6 mph 29.9 mph N/A   Clear
6:56 PM 19.4 °F 4.5 °F 10.4 °F 68% 29.96 in 10.0 mi SSE 17.3 mph - N/A   Clear
7:15 PM 19.4 °F 4.5 °F 10.4 °F 68% 29.96 in 10.0 mi SSE 17.3 mph - N/A   Clear
7:35 PM 19.4 °F 3.6 °F 10.4 °F 68% 29.94 in 10.0 mi SSE 19.6 mph - N/A   Clear
7:36 PM 19.4 °F 3.2 °F 10.4 °F 68% 29.94 in 10.0 mi SSE 20.7 mph - N/A   Clear
7:58 PM 19.4 °F 3.2 °F 10.4 °F 68% 29.92 in 10.0 mi SSE 20.7 mph - N/A   Clear
8:16 PM 19.4 °F 4.1 °F 10.4 °F 68% 29.92 in 10.0 mi SSE 18.4 mph 26.5 mph N/A   Clear
8:36 PM 19.4 °F 4.1 °F 12.2 °F 74% 29.91 in 10.0 mi SSE 18.4 mph - N/A   Clear
8:55 PM 19.4 °F 5.0 °F 12.2 °F 74% 29.91 in 10.0 mi SSE 16.1 mph 23.0 mph N/A   Clear
8:56 PM 19.4 °F 4.5 °F 12.2 °F 74% 29.91 in 10.0 mi SSE 17.3 mph 23.0 mph N/A   Clear
9:15 PM 19.4 °F 2.8 °F 12.2 °F 74% 29.90 in 10.0 mi SSE 21.9 mph - N/A   Clear
9:37 PM 19.4 °F 5.5 °F 12.2 °F 74% 29.90 in 10.0 mi SSE 15.0 mph 21.9 mph N/A   Clear
9:55 PM 19.4 °F 4.5 °F 12.2 °F 74% 29.88 in 10.0 mi SSE 17.3 mph - N/A   Clear
10:15 PM 19.4 °F 4.5 °F 12.2 °F 74% 29.88 in 10.0 mi SSE 17.3 mph - N/A   Clear
10:35 PM 19.4 °F 5.5 °F 12.2 °F 74% 29.87 in 10.0 mi SSE 15.0 mph - N/A   Clear
10:36 PM 19.4 °F 5.5 °F 12.2 °F 74% 29.87 in 10.0 mi SSE 15.0 mph - N/A   Clear
10:58 PM 19.4 °F 6.0 °F 12.2 °F 74% 29.87 in 10.0 mi SSE 13.8 mph 20.7 mph N/A   Clear
11:16 PM 19.4 °F 5.5 °F 12.2 °F 74% 29.87 in 10.0 mi SSE 15.0 mph - N/A   Clear
11:35 PM 19.4 °F 5.5 °F 12.2 °F 74% 29.86 in 10.0 mi SSE 15.0 mph 19.6 mph N/A   Clear
11:55 PM 19.4 °F 6.0 °F 12.2 °F 74% 29.85 in 10.0 mi SSE 13.8 mph - N/A   Clear
11:56 PM 19.4 °F 6.0 °F 12.2 °F 74% 29.85 in 10.0 mi SSE 13.8 mph - N/A   Clear